Temp
29 27 26 28 27 29 29 29 28 29 31 30 28 28 25 25 25 24 25 24 24 24 25 25 25 26 25 24 25 25 25 25 25 26 25 25 25 25 25 25 25 25 25 25
27 25 27 28 28 29 28 28 28 29 30 29 28 27 28 26 25 25 25 25 25 25 24 24 25 24 23 23 25 25 25 25 25 26 25 25 25 25 26 26 25 25 26 25
27 28 28 29 29 29 27 27 27 29 30 29 28 27 27 26 27 26 26 26 26 25 25 24 23 23 23 24 25 25 25 25 25 26 25 25 25 26 25 26 26 26 26 25
25 28 28 28 28 28 26 28 30 29 29 29 29 27 27 26 27 27 26 26 26 26 26 25 24 24 23 24 25 25 26 26 26 26 26 25 26 26 26 26 26 26 26 26
25 26 27 28 29 28 28 30 29 30 28 29 30 28 28 26 26 26 27 27 26 26 26 26 24 24 24 24 24 25 26 26 26 26 26 25 25 26 26 26 26 27 26 26
26 28 27 28 29 29 30 30 29 28 25 25 31 27 30 25 26 27 28 27 27 27 26 26 26 25 24 25 24 24 25 25 26 25 26 25 25 25 26 26 26 27 27 26
25 26 27 30 29 29 29 25 24 25 24 27 29 27 30 31 30 29 27 28 28 27 27 26 26 25 25 25 24 24 24 24 25 25 26 25 25 25 26 26 26 27 27 26
22 25 26 28 27 26 25 24 22 24 24 27 26 27 30 29 28 29 29 29 28 27 27 27 27 26 25 25 24 24 23 23 25 25 25 25 25 25 26 26 26 26 26 26
20 22 26 28 28 28 27 25 25 25 25 25 26 28 30 29 29 28 29 29 28 27 27 27 27 26 25 25 25 24 23 23 24 25 25 25 25 25 25 26 26 26 26 25
22 23 24 28 28 27 27 26 25 21 25 25 25 27 28 30 29 28 28 28 29 28 28 27 27 26 26 25 25 24 24 24 24 25 25 25 25 25 25 25 26 25 25 25
20 20 24 27 26 27 26 25 25 23 22 26 24 25 26 29 28 28 28 29 29 28 28 28 27 26 26 25 25 24 24 23 23 24 24 25 25 25 25 25 25 26 25 25
20 16 20 24 26 26 25 25 25 25 25 22 23 28 29 28 28 28 29 29 29 29 29 28 28 27 26 26 25 24 24 23 23 24 24 25 25 25 25 25 25 26 26 26
18 17 17 24 24 24 27 26 25 21 21 23 25 25 28 26 26 27 28 28 27 28 29 28 28 27 27 26 25 25 24 24 24 24 24 24 24 25 25 26 26 25 26 26
17 15 17 17 19 20 23 25 27 24 22 24 23 27 28 29 28 27 26 27 28 28 29 29 27 27 27 27 25 25 24 24 23 23 23 23 24 25 25 26 26 26 26 25
15 17 17 17 18 20 22 24 26 25 25 25 27 26 28 28 27 27 25 27 27 26 29 29 27 27 27 26 26 25 24 24 23 23 23 23 24 25 25 25 26 26 25 25
13 16 15 17 21 22 23 25 25 26 28 25 25 25 26 27 27 27 26 26 26 26 29 29 28 27 27 26 26 25 24 24 23 23 23 23 23 24 25 25 25 25 25 25
14 14 14 17 18 20 24 27 26 27 25 24 25 26 23 26 26 26 25 25 27 27 28 29 28 27 27 27 26 26 24 24 23 23 23 23 23 24 24 25 25 24 25 24
15 14 12 14 16 22 24 24 24 26 25 24 24 24 23 23 28 28 28 27 26 28 29 28 28 28 27 27 27 26 25 24 23 23 23 23 23 23 24 23 24 24 24 24
13 13 14 15 15 19 24 23 23 23 24 24 23 23 23 24 27 26 26 27 26 26 28 28 29 28 27 27 27 26 24 24 23 23 23 23 23 23 23 23 23 24 23 24
11 13 15 15 17 20 22 22 22 23 22 23 23 22 21 24 25 27 27 27 27 26 26 26 27 28 27 27 26 26 25 24 23 24 24 23 24 23 23 24 24 24 23 23
14 14 15 14 16 17 20 19 23 22 21 21 22 21 22 21 21 21 22 28 27 26 26 28 27 27 27 27 26 25 25 24 25 25 24 24 24 24 25 25 24 23 23 23
13 13 13 14 17 18 18 20 19 18 18 20 20 20 20 21 21 21 23 25 24 24 25 27 27 27 27 26 26 25 25 26 25 25 24 24 24 24 24 24 23 23 23 22
12 12 12 13 15 14 15 16 16 16 16 19 19 19 19 20 20 21 21 21 21 23 23 26 27 26 26 26 26 26 26 26 25 25 25 24 24 24 24 23 23 22 22 22
11 12 13 13 14 13 15 16 15 16 16 19 19 18 18 18 19 19 20 20 20 21 22 23 25 23 23 25 26 26 26 26 26 25 24 24 24 23 23 23 23 23 22 22
11 12 11 14 13 13 15 14 14 16 17 19 18 18 18 18 18 19 19 19 20 20 21 22 22 24 24 26 25 26 27 27 25 25 24 24 24 24 23 23 23 23 24 24
11 11 11 12 12 12 13 14 14 15 16 17 18 17 17 18 18 19 18 19 20 20 20 20 21 21 24 26 26 26 27 28 27 25 25 25 24 24 23 24 23 24 24 24
Height
743 763 776 765 768 765 769 774 781 765 750 759 768 768 769 765 773 779 779 780 783 784 785 790 795 798 800 804 808 812 815 818 820 822 825 827 829 829 830 832 833 834 834 834
757 771 754 751 759 765 771 777 780 764 753 761 768 769 757 760 760 761 766 770 774 779 782 786 791 794 798 801 806 810 813 816 818 821 824 827 828 828 829 831 833 834 834 834
756 751 744 752 758 767 774 781 776 774 756 755 764 771 762 756 753 757 757 758 763 767 773 782 787 790 795 799 803 807 810 813 816 819 823 825 826 827 829 831 832 833 834 834
753 738 747 754 760 762 783 760 759 765 773 788 757 800 765 757 750 748 753 757 760 763 766 773 781 786 790 795 801 804 807 810 814 817 820 823 825 825 826 829 831 832 834 834
754 747 752 756 751 752 765 749 760 760 772 772 765 788 759 756 761 752 746 746 751 755 758 765 773 778 784 791 796 801 804 808 811 815 818 821 823 824 826 828 829 831 832 834
744 730 738 740 737 743 740 754 762 766 785 809 763 786 756 764 748 739 734 736 739 746 751 756 766 775 780 785 791 797 801 804 808 812 816 819 822 824 826 826 827 829 831 833
749 744 734 730 747 741 750 778 812 812 815 796 762 782 752 724 715 715 721 722 728 734 745 751 759 767 773 778 784 791 796 799 804 808 812 816 819 822 823 824 825 827 829 831
771 768 742 729 742 756 762 774 809 819 816 791 772 783 744 711 709 701 703 710 719 728 735 741 748 758 767 771 778 784 790 795 800 804 808 812 816 819 820 822 823 825 827 829
774 767 729 723 726 736 751 773 758 784 783 798 781 749 719 706 703 701 704 711 718 724 729 735 744 752 759 767 770 777 783 790 794 799 804 808 812 815 816 819 821 823 825 828
752 764 738 721 722 727 738 741 777 793 804 807 787 766 752 719 712 710 711 711 712 715 723 730 738 746 753 759 767 771 777 783 788 794 799 803 807 810 813 816 817 820 823 825
755 761 749 729 737 740 745 754 756 769 780 785 796 775 725 714 705 706 702 700 699 705 711 719 726 735 744 752 760 766 771 778 784 788 793 798 802 806 809 811 813 816 820 822
755 771 769 743 723 719 728 742 746 768 775 779 776 752 700 698 694 694 693 694 697 701 698 705 716 726 735 743 752 759 765 771 776 781 787 792 797 801 804 806 808 811 814 818
761 775 784 750 742 731 730 730 734 752 761 768 772 759 698 696 695 689 691 688 692 697 702 709 715 718 726 734 741 749 758 763 769 775 780 786 790 795 797 799 803 805 809 812
759 781 783 789 772 762 750 737 727 744 768 756 758 735 712 696 695 691 690 685 686 689 692 696 706 709 716 725 731 739 747 755 762 768 773 778 783 787 790 794 797 800 803 806
772 778 775 773 761 755 746 738 730 738 736 746 727 730 707 694 689 684 683 682 685 687 685 686 693 698 705 714 724 731 737 745 754 761 766 770 776 780 784 788 791 794 796 799
781 783 784 770 747 743 743 728 723 721 712 723 721 719 689 680 679 680 678 679 679 677 673 674 683 697 703 708 713 723 729 737 745 752 757 763 770 774 778 781 785 788 789 792
786 791 792 775 758 750 742 720 717 712 713 718 725 707 701 687 682 674 672 671 665 663 665 669 674 680 689 698 705 714 719 728 737 743 749 756 762 767 770 775 779 780 782 786
783 788 795 787 769 759 726 712 711 711 711 710 709 702 694 688 664 655 652 657 661 660 657 660 665 672 682 690 698 706 714 720 729 735 742 748 754 759 763 767 770 772 776 778
779 787 788 787 784 751 721 721 725 725 719 707 707 697 686 673 667 666 655 652 655 654 652 654 658 665 673 685 692 700 708 714 722 729 733 739 745 751 756 759 762 765 769 772
782 777 782 784 777 760 733 717 708 710 734 706 703 697 690 676 689 667 655 651 653 651 652 657 659 666 670 679 688 694 701 708 716 721 726 731 737 743 747 750 754 758 761 764
779 780 780 782 775 758 733 723 699 731 739 713 705 701 694 693 688 671 658 652 652 650 649 654 660 660 664 673 681 688 694 699 703 711 718 723 728 733 738 743 747 751 754 758
780 782 782 778 771 763 738 721 736 740 723 716 709 705 699 691 680 668 661 656 652 651 650 648 652 655 662 668 675 681 688 687 699 706 711 716 721 726 731 736 739 743 747 750
786 785 781 777 769 762 752 750 746 740 734 719 714 708 701 693 684 673 669 663 659 653 649 652 653 651 658 663 669 673 678 687 695 699 702 707 713 719 724 728 732 737 740 742
782 778 776 773 764 760 751 745 741 736 731 720 715 711 704 698 690 682 676 672 667 662 655 654 655 653 655 659 661 669 676 682 688 694 699 704 708 712 717 721 725 728 731 733
788 782 783 769 764 754 747 751 747 736 729 718 716 711 710 702 696 691 686 681 676 671 664 658 659 657 653 657 664 671 674 679 682 687 693 696 700 705 710 713 716 717 718 721
788 790 788 777 775 774 763 755 750 741 734 726 720 712 709 704 702 696 692 689 682 679 671 668 669 666 655 659 662 668 672 675 678 682 686 688 693 698 702 705 708 709 709 713
Wind_Speed
1 3 6 10 7 5 2 1 6 4 2 1 3 2 15 18 14 14 16 15 16 16 17 17 23 25 26 31 38 33 28 24 23 21 14 9 11 10 13 11 8 5 2 2
2 7 9 6 7 5 4 4 7 5 5 6 6 8 9 21 23 23 21 19 18 16 11 13 24 26 28 33 40 33 29 27 24 25 18 10 10 7 11 13 10 6 2 2
13 10 6 6 4 5 4 6 5 7 2 4 2 6 6 12 12 18 19 20 18 21 18 13 19 26 28 32 38 35 31 27 27 25 19 10 7 7 12 14 11 8 4 2
5 6 7 5 7 8 5 8 5 6 1 4 4 5 4 6 19 22 20 20 20 19 18 15 20 26 31 34 38 37 33 27 28 26 22 16 10 9 14 17 12 8 5 4
9 7 8 12 15 7 9 5 9 7 5 5 2 3 6 4 8 16 21 22 22 21 21 19 21 30 34 35 38 39 36 31 27 26 26 19 13 12 14 15 13 12 9 8
6 2 5 8 7 9 8 4 3 2 3 1 18 6 17 6 9 15 19 23 24 23 21 20 28 31 31 34 36 37 38 37 32 27 29 25 20 16 15 13 14 15 13 10
3 5 3 3 2 2 4 6 2 3 1 9 7 6 17 10 14 15 25 25 25 23 22 20 20 26 31 33 34 36 38 39 37 32 30 29 25 21 19 16 14 14 12 10
6 11 9 3 10 8 8 9 6 7 4 3 3 7 10 9 7 11 20 25 23 22 22 23 23 30 32 35 35 36 36 36 41 37 34 31 27 25 24 21 16 15 14 11
7 8 6 8 7 11 6 5 8 5 1 2 4 8 11 4 5 8 16 19 20 21 21 22 22 31 33 34 38 38 37 36 41 41 37 35 31 28 27 25 22 17 14 12
3 3 7 8 5 7 9 7 4 2 6 5 5 5 6 5 7 6 14 17 19 21 21 20 19 29 32 36 37 38 39 40 41 43 42 39 36 33 29 27 27 23 18 15
3 4 6 1 6 12 1 3 3 4 6 8 4 6 8 12 8 14 17 21 23 21 22 22 22 33 35 35 36 36 36 37 35 39 42 41 40 38 34 31 31 28 23 20
3 4 5 14 4 5 9 10 9 6 6 2 3 9 6 11 9 13 16 15 15 18 22 24 23 31 34 35 35 35 36 35 38 41 39 40 41 39 39 37 35 33 30 25
6 3 4 3 5 6 3 3 4 3 3 7 5 6 4 6 7 9 13 14 12 12 16 16 20 22 32 35 36 36 35 37 37 38 39 38 38 41 42 43 40 37 35 33
4 2 4 5 4 4 5 2 3 5 3 4 7 10 9 8 8 6 9 11 12 15 19 21 20 22 32 36 36 37 36 36 36 37 38 37 39 42 43 42 42 41 38 34
4 2 2 8 12 5 7 6 5 6 7 6 7 11 11 12 11 10 9 10 11 10 18 23 23 23 29 34 35 35 37 38 36 35 36 38 41 41 40 40 41 41 40 38
5 3 4 5 4 4 9 9 8 7 2 4 7 8 7 7 4 7 10 10 11 13 18 23 20 19 20 30 35 34 35 36 37 36 36 39 37 38 40 40 40 39 39 37
3 3 5 5 6 8 2 2 4 3 2 3 3 5 7 6 9 12 12 13 17 16 16 19 22 23 28 33 36 35 36 37 37 37 37 36 38 39 40 40 39 40 39 37
3 1 1 4 6 5 5 4 5 1 5 5 6 9 11 13 15 15 12 15 9 12 18 20 20 20 31 33 35 35 33 36 36 36 34 34 35 38 39 37 39 40 37 38
7 4 1 0 3 6 2 5 5 4 3 9 10 15 15 9 3 9 6 3 7 8 13 15 27 30 31 33 34 33 31 33 33 33 34 35 36 36 37 37 39 40 34 37
4 3 3 2 1 5 1 18 14 6 3 12 13 16 16 7 5 8 4 5 7 9 8 11 24 24 28 31 32 32 29 30 31 33 35 36 39 38 37 40 39 38 36 36
2 2 6 3 3 7 10 23 15 3 4 15 11 11 13 6 4 16 14 3 2 3 10 22 24 25 32 31 32 29 30 31 40 38 36 39 41 41 43 42 37 34 33 33
1 2 4 2 2 4 18 6 7 10 12 7 6 8 11 10 12 13 9 7 8 8 6 20 22 24 28 31 34 30 29 41 34 34 34 36 39 39 35 37 35 34 32 30
2 2 3 1 2 3 7 8 11 8 11 6 6 6 10 11 12 15 13 13 12 9 4 11 17 20 24 31 33 30 32 30 32 34 36 36 37 37 35 33 32 29 29 28
4 4 2 6 2 15 6 13 17 17 17 14 7 7 7 9 13 13 13 13 13 12 9 10 9 10 15 28 37 30 25 32 34 33 30 30 31 32 32 32 30 29 28 27
2 6 9 5 8 14 6 15 19 22 21 14 10 9 10 10 14 13 11 12 12 12 19 21 11 6 13 23 22 19 23 28 32 31 28 29 31 32 29 32 31 33 36 35
1 2 2 3 10 5 10 15 19 20 19 19 12 14 12 11 9 12 11 12 12 13 20 19 18 11 14 5 7 14 23 28 31 25 24 28 27 25 29 27 28 37 39 35
Wind_Direction
240 116 198 225 183 192 211 271 272 272 138 66 338 109 186 180 176 182 189 187 188 196 208 204 192 202 201 192 187 191 190 191 191 188 186 184 193 199 200 205 201 183 131 80
66 211 221 221 160 175 200 244 260 291 228 159 195 221 212 184 191 188 186 189 190 192 188 180 176 181 181 182 186 194 192 188 192 191 194 189 185 201 197 200 215 205 170 124
205 218 196 194 208 187 188 195 228 224 322 300 141 268 171 191 199 201 198 191 190 187 183 178 174 176 179 184 188 190 188 191 189 193 198 198 201 208 197 204 217 217 198 182
213 233 190 186 222 164 236 212 237 239 221 255 118 282 208 203 207 197 193 193 193 194 191 174 174 182 181 189 190 189 188 188 193 200 205 204 205 198 196 206 219 221 216 224
222 189 179 213 228 163 235 192 198 228 221 317 232 283 264 142 217 204 200 193 195 193 190 184 179 184 187 186 191 193 192 193 197 203 204 203 205 210 198 217 231 233 232 242
220 260 172 203 225 191 234 120 52 24 102 264 250 178 276 200 211 210 199 197 191 193 191 187 183 185 185 185 189 194 196 197 200 205 205 208 211 214 220 230 237 228 242 242
327 239 212 165 243 168 127 91 282 337 153 232 229 212 238 255 235 208 192 194 192 188 190 188 184 185 185 183 186 192 195 197 201 206 208 211 216 221 230 237 238 228 230 246
182 260 165 194 190 187 191 159 166 187 215 241 112 218 251 240 249 220 193 195 185 187 191 190 188 186 189 187 187 188 194 196 201 207 210 212 217 224 231 236 241 236 243 254
172 255 295 186 195 167 221 170 186 185 336 26 244 283 300 281 315 164 177 182 186 189 189 192 189 191 188 193 189 191 193 198 202 208 212 215 218 224 231 234 236 241 243 236
301 289 222 237 163 231 166 173 88 351 164 235 260 261 240 271 244 150 173 184 193 193 191 190 188 190 192 192 196 192 196 197 205 208 214 217 219 224 231 235 236 237 239 238
30 137 279 75 204 213 156 180 101 141 155 202 227 251 224 239 200 192 190 194 195 189 189 190 190 189 191 192 193 197 195 197 202 207 214 219 223 226 230 235 237 238 241 244
308 137 233 239 235 201 187 195 186 196 246 241 198 247 262 241 235 193 200 198 201 207 193 190 189 186 186 188 193 196 197 197 202 209 212 220 224 226 229 234 239 241 244 246
322 8 350 43 354 352 233 216 164 124 93 210 194 267 265 279 268 199 199 200 193 203 202 195 190 188 190 189 190 193 197 198 201 206 211 217 223 227 231 234 239 244 247 251
95 97 139 204 260 274 285 301 179 147 142 211 209 240 279 261 236 212 197 216 197 195 198 194 191 192 190 193 188 190 193 199 198 203 209 213 219 227 231 235 240 246 251 252
66 40 306 245 250 231 248 253 239 173 211 172 234 208 231 234 215 209 205 212 217 211 204 196 193 191 189 187 190 189 191 193 195 199 205 213 221 228 232 236 241 246 250 254
8 316 345 275 268 319 255 250 239 231 248 244 267 249 233 269 157 180 206 207 213 212 200 196 188 188 189 189 187 187 187 191 192 197 204 213 218 224 232 238 242 246 250 254
35 26 358 272 316 315 254 248 289 98 142 207 285 266 322 235 210 197 204 205 211 198 183 181 183 183 186 188 185 188 187 189 191 196 204 207 214 221 228 235 240 245 249 253
209 73 164 272 318 179 221 316 244 259 82 24 308 314 299 269 228 205 208 196 202 203 185 184 183 183 189 187 187 188 184 185 191 197 201 206 209 217 225 229 236 243 246 251
194 129 283 221 271 286 37 5 343 18 319 7 341 334 324 289 120 281 228 238 214 205 196 185 185 184 175 184 186 182 180 185 191 197 199 204 207 213 219 224 232 239 239 246
91 99 133 290 276 225 354 329 320 238 214 356 353 344 342 323 162 238 319 176 232 188 176 181 174 174 170 183 182 177 180 180 193 200 202 204 209 212 217 226 230 236 238 242
132 170 172 219 259 284 341 323 312 81 302 325 338 342 355 352 293 299 297 190 300 249 189 178 170 174 184 177 177 185 185 189 202 202 202 206 211 215 223 229 231 232 234 239
304 196 202 132 207 291 348 12 40 323 302 306 320 332 338 331 341 0 4 11 352 326 221 183 181 183 184 180 180 188 193 203 201 201 201 206 212 216 219 223 228 229 229 229
178 85 295 272 237 270 314 351 338 327 330 305 318 328 343 345 355 8 3 4 345 338 349 205 197 168 176 183 189 193 205 200 201 199 203 208 213 217 218 219 221 223 223 224
331 36 255 324 359 332 290 346 350 350 343 328 323 330 356 352 0 6 5 3 357 346 6 357 176 164 169 187 198 204 201 202 201 203 206 209 211 215 218 220 222 221 223 225
359 321 321 263 352 333 3 341 336 338 341 340 346 343 359 22 3 4 2 3 0 356 7 13 356 196 179 202 210 208 210 206 203 206 208 208 212 216 217 222 223 224 231 228
93 321 293 289 315 291 300 315 317 336 340 339 348 345 347 19 16 5 3 0 6 9 10 16 3 2 73 119 214 228 222 214 208 206 207 210 211 213 218 223 229 232 237 238